Location: Croydon
(51.3762°N, 0.0982°W)
Time: 16:36:55
(UTC+00:00)

Transit 2A - Visible Passes

Search period start: 21 November 2019 00:00
Search period end: 01 December 2019 00:00
Orbit: 601 x 957 km, 66.7° (Epoch: 21 November)

Date Brightness Start Highest point End Pass type
(mag) Time Alt. Az. Time Alt. Az. Time Alt. Az.
21 Nov 7.2 17:45:18 10° NNW 17:48:19 18° NNE 17:48:39 18° NNE visible
21 Nov 7.8 19:27:56 10° NW 19:29:09 18° NNW 19:29:09 18° NNW visible
22 Nov 7.4 17:11:18 10° NNW 17:13:53 15° NNE 17:15:33 13° NE visible
22 Nov 7.1 18:53:52 10° NNW 18:56:03 27° NNW 18:56:03 27° NNW visible
23 Nov 6.5 18:19:49 10° NNW 18:23:02 32° NNE 18:23:02 32° NNE visible
23 Nov 8.5 20:02:57 10° NW 20:03:31 13° NW 20:03:31 13° NW visible
24 Nov 6.5 17:45:48 10° NNW 17:49:35 28° NE 17:50:05 27° NE visible
24 Nov 7.6 19:28:43 10° NW 19:30:35 24° NW 19:30:35 24° NW visible
25 Nov 6.8 17:11:47 10° NNW 17:15:15 22° NNE 17:17:14 17° ENE visible
25 Nov 6.2 18:54:32 10° NW 18:57:45 49° NW 18:57:45 49° NW visible
26 Nov 7.1 16:37:47 10° NNW 16:40:52 18° NNE 16:43:58 10° ENE visible
26 Nov 5.4 18:20:25 10° NW 18:24:46 70° NE 18:25:03 68° E visible
26 Nov 8.4 20:04:26 10° WNW 20:05:34 14° W 20:05:34 14° W visible
27 Nov 5.7 17:46:20 10° NNW 17:50:36 51° NE 17:52:32 29° ESE visible
27 Nov 7.6 19:29:51 10° WNW 19:33:04 25° WSW 19:33:04 25° WSW visible
28 Nov 6.1 17:12:17 10° NNW 17:16:22 38° NE 17:20:19 11° ESE visible
28 Nov 6.9 18:55:28 10° NW 18:59:30 37° WSW 19:00:53 29° SSW visible
29 Nov 6.4 16:38:15 10° NNW 16:42:06 29° NE 16:45:59 10° E visible
29 Nov 6.2 18:21:12 10° NW 18:25:27 54° WSW 18:29:11 14° SSE visible
30 Nov 5.6 17:47:01 10° NW 17:51:23 77° SW 17:55:53 10° SSE visible
30 Nov 8.7 19:32:18 10° W 19:33:46 11° WSW 19:35:16 10° SW visible
